Location: Unspecified
(0.0000°N, 0.0000°E)
Time: 17:24:55
(UTC+02:00)

ISS - All Passes

Search period start: 16 July 2025 00:00
Search period end: 26 July 2025 00:00
Orbit: 413 x 417 km, 51.6° (Epoch: 16 July)

Date Brightness Start Highest point End Pass type
(mag) Time Alt. Az. Time Alt. Az. Time Alt. Az.
16 Jul - 04:32:34 10° N 04:35:02 19° NE 04:37:30 10° ESE night (unlit)
16 Jul - 06:09:50 10° W 06:11:33 13° SW 06:13:14 10° SSW night (unlit)
16 Jul - 16:09:04 10° SSE 16:10:38 13° SE 16:12:12 10° E daylight
16 Jul - 17:44:40 10° WSW 17:47:09 19° NW 17:49:37 10° N daylight
17 Jul - 05:19:41 10° WNW 05:22:39 30° SW 05:25:38 10° S night (unlit)
17 Jul - 16:55:04 10° SW 16:58:17 47° NW 17:01:29 10° NNE daylight
18 Jul - 04:30:27 10° NW 04:33:47 80° SW 04:37:08 10° SSE night (unlit)
18 Jul - 16:06:07 10° SSW 16:09:24 61° SE 16:12:41 10° NE daylight
19 Jul - 03:41:48 10° NNW 03:44:54 37° NE 03:48:02 10° SE night (unlit)
19 Jul - 15:17:45 10° S 15:20:31 24° SE 15:23:16 10° ENE daylight
19 Jul - 16:56:33 10° WNW 16:57:01 10° NW 16:57:29 10° NW daylight
20 Jul - 02:53:51 10° NNE 02:56:00 16° NE 02:58:10 10° E night (unlit)
20 Jul - 04:30:24 10° W 04:32:30 16° SW 04:34:37 10° SSW night (unlit)
20 Jul - 14:30:45 10° SE 14:31:34 11° SE 14:32:25 10° ESE daylight
20 Jul - 16:05:23 10° WSW 16:08:05 23° NW 16:10:48 10° N daylight
21 Jul - 03:40:29 10° WNW 03:43:35 36° SW 03:46:42 10° SSE night (unlit)
21 Jul - 15:15:54 10° SW 15:19:11 59° NW 15:22:27 10° NNE daylight
22 Jul - 02:51:20 10° NNW 02:54:39 83° NE 02:58:00 10° SE night (unlit)
22 Jul - 14:27:02 10° SSW 14:30:15 49° SE 14:33:28 10° NE daylight
23 Jul - 02:02:45 10° N 02:05:43 30° NE 02:08:43 10° ESE night (unlit)
23 Jul - 13:38:46 10° S 13:41:18 20° SE 13:43:50 10° ENE daylight
23 Jul - 15:16:21 10° W 15:17:48 12° NW 15:19:15 10° NNW daylight
24 Jul - 01:15:02 10° NNE 01:16:46 13° NE 01:18:30 10° E night (unlit)
24 Jul - 02:50:50 10° W 02:53:16 19° SW 02:55:42 10° S night (unlit)
24 Jul - 14:25:55 10° WSW 14:28:50 28° NW 14:31:43 10° N daylight
25 Jul - 02:01:05 10° NW 02:04:17 44° SW 02:07:29 10° SSE night (unlit)
25 Jul - 13:36:33 10° SW 13:39:52 75° NW 13:43:10 10° NNE daylight
